Home   Weather   Völkermarkt   Past weeks

Flag for Austria Past Weather in Völkermarkt, Carinthia, Austria — Yesterday and Last 2 Weeks

39 °F

Light rain. Low clouds.

Feels Like: N/A
Forecast: 32 / 58 °F
Wind: N/A

Location: Klagenfurt-Flughafen

Current Time: Oct 23, 2016 at 10:02:43 AM

Latest Report: Oct 23, 2016 at 9:00 AM

Visibility: 0 mi

Pressure: 30.13 "Hg

Humidity: 95%

Dew Point: 38 °F

Location of VölkermarktLocation

Past Weather in Völkermarkt — Graph


Völkermarkt Temperature Yesterday

Maximum temperature yesterday: 51 °F (at 5:00 PM)
Minimum temperature yesterday: 38 °F (at 11:00 PM)
Average temperature yesterday: 44 °F

High & Low Weather Summary for the Past Weeks

High62 °F (Oct 16, 5:00 PM)100% (Oct 23, 3:00 AM)30.30 "Hg (Oct 23, 3:00 AM)
Low31 °F (Oct 13, 7:00 AM)43% (Oct 12, 3:00 PM)29.93 "Hg (Oct 11, 5:00 PM)
Average47 °F86%30.10 "Hg
* Reported Oct 8 9:00 AM — Oct 23 9:00 AM, Völkermarkt, Weather by CustomWeather, © 2016

Note: Actual official high and low records may vary slightly from our data, if they occured in-between our weather recording intervals... More about our weather records


Völkermarkt Weather History for the Previous 24 Hours

Scroll right to see more
Time TempWeatherWind HumidityBarometerVisibility
9:00 AM
Sun, Oct 23
39 °FLight rain. Low clouds.N/A95%30.13 "Hg0 mi
8:00 AM39 °FLow clouds.N/A96%30.11 "Hg4 mi
7:00 AM38 °FLow clouds.N/A96%30.11 "Hg6 mi
6:00 AM38 °FLow clouds.N/A97%30.12 "Hg5 mi
5:00 AM37 °FLow clouds.N/A98%30.11 "Hg2 mi
4:00 AM38 °FLow clouds.N/A99%30.11 "Hg2 mi
3:00 AM38 °FLight rain. Low clouds.N/A100%30.12 "Hg1 mi
2:00 AM36 °FLight snow. Low clouds.N/A99%30.12 "Hg1 mi
1:00 AM37 °FLight rain. Low clouds.N/A98%30.11 "Hg0 mi
12:00 AM38 °FPassing clouds.N/A95%30.11 "Hg7 mi
11:00 PM
Sat, Oct 22
38 °FPassing clouds.N/A95%30.11 "Hg5 mi
10:00 PM39 °FPassing clouds.N/A94%30.10 "Hg6 mi
9:00 PM42 °FPassing clouds.N/A93%30.08 "Hg15 mi
8:00 PM43 °FPassing clouds.N/A90%30.06 "Hg17 mi
7:00 PM44 °FPassing clouds.N/A86%30.04 "Hg28 mi
6:00 PM49 °FScattered clouds.N/A70%30.01 "Hg28 mi
5:00 PM51 °FScattered clouds.N/A64%30.01 "Hg22 mi
4:00 PM51 °FPartly sunny.N/A63%30.01 "Hg25 mi
3:00 PM50 °FPartly sunny.N/A67%30.02 "Hg18 mi
2:00 PM49 °FPartly sunny.N/A67%30.04 "Hg19 mi
1:00 PM48 °FPartly sunny.N/A70%30.06 "Hg16 mi
12:00 PM46 °FOvercast.N/A77%30.08 "Hg19 mi
11:00 AM45 °FLow clouds.N/A84%30.09 "Hg14 mi
10:00 AM43 °FLow clouds.N/A92%30.09 "Hg7 mi
Weather by CustomWeather, © 2016

See weather overviewHow to use our weather pages